Theta_e
345 336 333 334 332 333 332 333 332 332 334 335 337 337 337 336 336 335 334 331 332 332 331 327 316 310 310 311 312 315 316 314 313 310 319 332 334 335 336 336 337 337 338 338 338 338 338 338 338 337 337 337 337 337 336 336 336 336 336 336 336 335 334 331 329 328 329 329 331 333 334 336 336 336 337 336 336 336 336 337 338 337 336 336 336
345 336 333 334 333 334 333 333 331 332 332 334 336 337 337 336 336 335 333 331 331 331 329 321 311 310 311 311 313 316 316 314 313 311 322 332 333 334 335 336 337 338 338 338 338 338 338 338 338 337 337 337 336 336 336 336 336 336 336 336 336 335 331 327 325 325 327 328 330 332 333 335 336 337 336 336 336 335 336 337 337 337 336 336 336
345 337 333 334 333 334 334 333 330 329 330 333 336 337 337 336 335 334 332 329 329 329 324 315 309 311 311 311 315 317 316 316 313 314 325 332 333 334 335 336 337 338 338 338 338 338 338 338 338 338 338 337 336 334 332 330 330 331 332 334 334 332 328 323 320 321 325 328 329 330 331 332 334 337 336 336 335 335 335 335 336 336 335 335 335
344 338 333 334 333 333 333 333 330 328 327 331 335 336 336 335 334 333 329 326 327 324 318 311 310 311 311 311 315 318 318 317 315 319 328 333 333 333 335 337 338 338 338 338 338 338 338 339 338 338 337 332 328 322 318 316 316 316 317 319 322 325 323 320 317 321 325 328 330 331 332 332 331 334 336 336 335 334 334 334 334 335 334 335 335
345 341 335 334 333 334 334 333 331 328 325 327 332 336 336 335 333 331 325 323 324 319 313 309 311 311 311 312 316 319 319 319 319 323 329 331 332 335 337 337 338 338 338 338 339 339 338 338 337 336 331 322 316 312 311 310 310 308 308 308 310 313 315 315 314 318 322 325 329 332 333 332 330 330 332 334 334 333 334 335 335 335 334 334 334
346 344 336 334 334 333 334 333 332 329 324 323 327 333 335 334 332 328 322 321 318 313 310 310 311 311 311 312 316 319 320 322 322 325 330 333 333 336 338 338 338 339 339 339 339 338 338 337 336 333 323 314 311 311 311 310 309 308 307 308 308 309 310 311 312 314 316 321 328 332 331 331 330 324 320 326 331 331 332 334 335 335 335 335 334
346 344 337 335 335 333 334 334 333 330 325 321 322 328 332 332 329 323 319 316 312 310 310 310 311 312 311 313 317 319 321 323 324 327 332 336 336 337 339 338 338 339 338 339 338 337 336 334 332 329 319 312 312 311 311 309 308 308 308 307 307 308 308 309 311 312 318 327 330 331 330 331 328 318 312 315 322 326 327 330 333 333 334 335 334
346 344 340 337 335 333 334 334 333 330 324 321 320 324 328 328 325 320 316 312 310 310 310 311 312 312 311 312 316 319 321 323 325 328 332 336 337 337 338 338 338 338 338 337 336 334 333 330 328 323 316 313 312 311 310 309 308 308 308 307 308 307 308 309 310 310 320 329 330 329 330 329 325 314 309 313 317 325 328 329 331 331 333 332 333
346 344 342 340 335 334 334 334 334 328 322 320 319 321 324 324 321 317 313 310 310 310 310 311 312 312 312 312 315 318 320 322 324 326 330 335 336 337 338 339 338 337 335 333 332 331 329 325 321 317 314 313 311 309 309 309 309 309 308 308 308 308 308 307 309 316 325 329 329 330 330 329 326 316 311 315 317 322 328 331 331 330 331 330 330
346 344 343 342 335 334 334 334 333 326 320 318 319 321 321 321 318 316 312 310 310 310 310 311 312 313 312 311 314 318 320 322 322 324 327 332 335 337 338 338 337 336 333 331 330 330 326 322 318 315 315 312 310 310 310 310 310 310 309 309 308 308 308 308 316 325 328 327 326 326 327 329 328 321 315 317 315 315 324 330 331 329 329 329 327
346 344 343 341 335 334 335 334 332 324 318 319 320 319 320 318 315 314 312 310 310 310 311 311 312 313 313 312 313 316 318 321 321 322 323 327 332 334 336 336 335 334 332 329 328 327 324 320 317 316 315 311 310 310 310 310 311 311 311 311 310 310 308 315 326 330 328 326 325 324 324 326 325 319 316 319 317 317 323 328 328 327 326 326 324
345 343 343 340 335 335 335 335 333 324 318 319 319 318 319 315 314 314 312 311 310 310 310 310 312 313 313 312 313 314 316 318 320 321 322 324 328 330 333 334 334 333 330 326 325 324 322 320 318 317 313 310 311 310 311 311 312 311 311 311 311 312 310 320 329 329 328 329 330 329 326 324 320 314 315 320 320 321 325 326 325 324 324 323 322
345 343 344 339 335 335 334 335 333 325 318 319 319 317 316 314 314 314 312 311 310 311 311 311 311 312 313 313 313 313 314 316 317 320 322 324 326 328 330 332 331 329 327 324 324 324 321 319 319 317 313 311 311 311 312 311 312 312 312 312 311 313 311 320 328 328 328 328 329 328 326 325 318 311 312 315 316 318 320 320 320 320 319 319 319
345 344 343 339 337 336 335 335 334 325 319 320 319 316 314 314 314 314 314 312 310 311 311 310 311 312 313 313 314 313 313 314 315 317 320 322 324 325 327 327 326 324 324 324 325 323 321 319 319 318 315 312 311 310 311 311 312 312 312 312 312 312 313 320 326 326 328 329 328 327 325 322 316 312 312 311 312 313 314 314 316 317 316 315 315
346 345 343 340 338 336 335 335 334 327 320 320 320 316 315 314 314 314 315 314 312 312 311 311 311 312 312 313 314 313 313 312 313 314 316 320 322 323 323 323 322 321 322 324 325 323 321 320 320 319 316 314 313 311 310 311 311 311 312 311 312 311 315 322 325 323 325 328 329 327 323 316 313 313 312 311 310 310 310 310 313 314 313 313 313
346 345 344 341 339 337 337 336 334 329 322 321 321 319 317 315 315 315 314 315 314 313 312 312 311 311 312 312 313 313 313 312 313 313 314 316 319 321 321 321 321 321 321 323 324 324 324 322 322 321 318 316 314 312 311 311 311 312 312 312 313 311 314 321 324 325 326 328 327 326 321 313 312 312 311 312 310 309 308 308 310 311 311 312 312
345 345 344 342 340 339 338 337 335 331 324 322 322 321 319 318 317 315 315 314 314 314 313 313 312 312 312 312 313 313 313 313 312 313 313 313 315 318 319 319 320 320 320 322 323 325 327 325 325 323 321 319 316 315 313 313 313 313 314 314 314 314 314 317 321 323 325 328 329 327 320 314 313 312 312 313 312 310 309 309 308 308 310 310 310
345 345 345 342 342 340 338 339 337 332 327 323 322 321 320 319 317 315 315 315 314 314 313 313 314 313 313 314 313 312 312 313 313 313 313 312 314 315 317 317 318 318 318 320 321 325 328 327 327 326 324 323 320 319 318 317 316 316 316 315 316 316 316 316 317 316 320 326 327 322 316 314 315 316 317 315 313 311 309 310 310 310 310 309 309
345 346 346 343 342 341 339 339 338 335 330 325 321 321 320 317 317 317 319 320 319 317 316 314 313 314 314 315 315 312 311 312 313 313 313 312 313 315 316 316 316 316 317 319 320 323 327 328 328 327 326 324 323 322 322 322 321 321 319 319 319 318 318 319 318 319 322 325 323 318 314 314 317 321 323 322 317 313 312 311 312 312 311 310 310
346 345 346 344 342 341 341 339 338 338 335 330 324 321 320 319 321 323 325 327 326 325 323 319 317 317 316 316 315 313 312 312 313 314 313 313 312 314 316 316 315 314 315 317 318 321 324 327 327 328 327 325 323 323 323 324 324 323 323 323 322 322 322 322 322 324 324 322 319 317 315 315 318 321 323 321 316 313 313 311 312 311 310 310 309
345 345 344 343 342 341 341 339 339 340 339 337 330 322 323 325 326 329 329 330 331 331 330 328 325 323 322 319 316 315 313 311 316 317 313 313 313 313 315 316 316 314 315 316 317 319 321 324 326 326 327 326 324 323 323 324 323 322 323 323 322 324 324 323 325 326 326 324 319 316 316 315 316 317 317 315 311 310 311 310 311 310 310 310 309
346 345 343 342 342 341 340 340 341 341 340 339 335 329 327 329 330 331 332 332 333 332 332 331 330 330 328 326 324 323 320 319 322 321 317 315 313 314 315 316 318 316 315 319 322 321 319 321 324 325 327 326 324 322 323 323 323 323 322 321 324 326 325 325 327 329 330 326 319 316 317 316 316 315 314 313 311 310 309 309 309 310 310 310 309
346 345 344 342 342 341 340 341 342 341 341 340 339 335 331 332 333 333 333 334 333 334 334 333 335 336 333 332 334 333 331 331 330 327 323 318 313 314 315 315 319 318 317 319 324 325 322 321 321 324 326 326 325 324 324 323 322 322 320 324 327 326 327 329 330 331 331 324 318 318 318 318 317 316 315 313 312 312 311 309 309 309 309 309 309
346 346 345 343 342 342 341 342 342 341 341 339 340 339 335 336 338 335 336 337 336 336 337 337 338 339 337 336 337 337 336 335 334 331 326 319 313 313 313 314 317 318 319 319 322 325 325 325 323 323 324 327 329 329 330 326 321 322 323 327 328 327 330 332 331 331 330 325 319 320 319 318 318 317 317 315 314 312 312 312 310 310 309 309 309
346 346 345 343 342 343 341 342 342 340 341 339 340 341 338 339 339 338 339 340 339 338 339 339 339 339 338 338 338 337 336 336 335 334 330 324 319 315 312 313 314 316 320 321 322 323 325 327 326 325 325 329 333 333 333 329 323 324 326 327 327 329 331 331 332 331 330 327 321 321 320 319 319 318 319 318 316 314 313 313 312 312 310 310 310
346 346 345 343 342 343 342 342 341 339 340 339 340 340 339 340 340 340 340 340 339 339 340 340 340 339 338 339 338 337 336 337 336 336 334 332 327 320 317 316 314 314 317 321 322 323 327 329 327 328 329 332 333 329 328 327 326 328 326 325 326 330 332 331 331 330 331 329 323 322 322 320 320 320 320 320 318 318 316 315 314 314 313 312 311
346 347 346 345 344 344 343 341 340 339 339 340 340 340 340 341 342 341 341 341 340 340 341 340 339 339 338 338 338 337 336 336 336 335 335 335 332 325 323 324 321 316 313 319 323 323 328 332 330 331 332 333 332 326 325 326 328 330 326 323 326 330 332 331 331 330 331 329 325 323 323 322 321 320 321 321 320 320 319 317 316 315 315 314 312
345 345 345 345 344 344 342 341 340 340 340 341 341 342 342 342 343 341 341 342 341 341 341 340 339 339 339 338 337 337 337 337 336 335 334 336 335 329 326 327 327 321 314 317 322 322 328 333 332 332 331 333 333 329 328 327 328 329 327 323 325 329 331 331 331 330 330 330 327 324 323 323 321 321 321 321 322 322 322 321 319 317 316 315 312
343 343 344 344 344 343 343 341 340 340 341 341 341 342 342 342 341 340 340 340 340 341 341 340 340 340 339 338 337 337 337 337 336 335 334 334 335 332 328 326 327 326 319 316 318 319 326 332 332 332 331 332 332 330 330 328 327 329 328 325 324 328 331 331 331 330 330 331 329 324 323 324 321 321 321 322 324 325 325 323 320 317 316 315 313
341 342 343 342 343 342 343 341 340 341 341 341 341 341 340 340 340 340 339 338 339 340 339 339 338 339 338 337 338 337 337 338 336 335 334 333 334 333 329 327 326 326 324 319 315 313 320 329 331 332 332 332 332 330 329 329 329 330 330 326 325 329 330 331 331 330 330 331 330 325 323 323 322 322 323 325 327 326 324 322 320 320 318 317 315
341 341 341 341 341 341 342 341 340 340 341 341 341 341 340 339 339 339 338 338 339 338 338 338 337 337 336 337 337 337 336 337 337 335 333 332 333 333 331 329 328 325 324 321 315 311 315 324 330 331 333 333 333 332 330 331 332 330 329 327 326 330 331 332 331 331 331 331 330 328 325 323 323 323 323 325 325 323 322 322 322 322 318 316 315
341 341 342 342 342 341 341 340 340 339 339 340 340 340 340 338 338 338 337 337 337 337 336 336 336 336 336 336 337 335 335 336 336 335 333 331 330 333 333 332 331 326 325 324 319 315 314 321 328 329 331 333 333 332 331 332 332 330 329 327 327 329 331 332 332 331 331 330 330 329 327 325 323 323 322 321 320 319 321 324 323 319 315 315 315
342 341 341 341 341 341 341 340 340 339 338 337 338 338 338 337 338 338 337 336 336 336 336 334 334 335 334 334 335 335 335 333 334 334 333 331 328 330 332 332 332 329 328 327 324 318 316 319 325 326 329 331 332 332 331 331 331 330 330 328 327 329 330 331 331 330 330 330 330 329 329 328 326 323 320 318 316 317 320 323 321 316 314 317 316
342 341 341 340 339 340 341 340 340 338 338 337 336 337 337 337 338 337 336 336 336 335 334 333 332 333 333 334 334 333 333 332 333 333 332 331 329 328 328 329 331 330 329 329 328 323 319 321 326 327 327 329 332 331 330 331 331 330 329 327 327 328 330 330 331 330 330 330 329 328 329 329 328 326 322 318 317 317 318 318 315 312 312 314 315
340 340 340 339 338 338 339 340 339 338 338 337 336 336 336 336 337 337 336 336 335 334 334 333 332 331 332 334 334 332 332 331 332 332 331 331 331 330 328 328 330 331 330 329 328 327 324 323 327 328 327 328 331 331 330 330 330 330 328 326 326 328 330 332 332 330 329 330 328 328 329 329 328 328 327 324 320 317 315 313 311 310 311 312 315
340 338 337 336 336 336 337 338 338 337 338 337 336 336 336 336 336 336 336 335 334 335 335 334 333 332 332 333 334 332 331 332 332 333 332 331 331 332 331 329 329 330 331 330 328 329 328 327 326 324 326 329 331 331 331 330 330 330 327 324 325 327 331 333 331 330 329 328 327 327 329 329 328 327 328 328 324 318 315 314 314 314 313 312 315
339 338 337 336 336 335 335 336 337 338 338 338 336 335 335 334 335 336 336 335 335 336 336 334 333 333 332 331 332 332 331 331 333 334 333 331 331 331 331 331 329 329 332 331 329 329 330 330 328 324 325 330 332 332 330 329 330 330 325 324 327 329 332 332 331 330 328 327 327 328 329 329 328 326 328 329 326 321 318 318 318 319 318 316 316
340 339 338 336 335 334 333 334 336 337 337 337 337 336 335 335 336 337 337 335 335 336 335 334 334 332 331 329 330 331 330 330 331 334 332 330 330 331 331 331 330 330 330 330 330 330 330 331 330 327 326 329 332 332 330 329 330 330 325 325 329 330 331 332 331 329 328 328 328 329 330 329 328 327 329 329 328 327 324 323 322 322 323 322 321
341 340 338 336 335 334 333 333 335 336 336 337 337 337 337 337 337 337 337 336 336 335 335 334 333 333 331 329 329 329 329 329 330 332 332 331 330 330 331 331 330 330 329 330 330 330 331 331 331 330 328 330 332 333 331 329 330 329 325 326 330 331 332 332 331 329 328 329 329 329 330 329 329 328 329 329 328 328 328 327 326 326 327 326 324
342 340 339 336 334 335 335 334 335 336 336 337 337 337 337 337 337 337 337 337 336 336 335 334 333 333 331 329 329 328 329 330 330 330 331 331 331 330 330 330 330 331 330 330 329 330 330 330 332 331 329 331 334 333 330 328 328 328 326 328 330 332 333 332 330 329 329 330 329 329 329 329 329 329 329 329 328 327 327 328 328 328 328 327 327
342 341 339 336 335 336 337 337 336 336 336 336 336 336 335 336 337 336 336 335 335 335 334 334 333 333 332 330 329 328 328 330 332 331 331 331 331 330 330 329 328 329 329 330 329 329 329 330 332 331 330 331 332 330 329 327 328 329 330 331 332 332 332 332 330 330 330 330 329 329 329 329 330 329 329 329 329 328 327 326 327 328 327 327 328
342 341 339 338 337 337 337 337 336 335 335 336 335 336 335 335 336 335 335 334 335 335 334 334 333 333 332 330 327 327 329 331 332 332 331 330 329 329 330 329 328 327 328 329 329 329 328 330 332 332 331 331 331 329 327 328 329 330 331 332 332 332 331 331 330 330 330 330 330 330 330 330 330 330 330 329 329 329 328 327 327 327 327 328 328
342 341 338 338 337 337 336 336 335 335 335 335 335 335 335 334 334 335 334 334 334 335 334 334 333 332 332 331 328 328 330 331 331 331 331 330 330 330 329 328 327 327 328 329 330 330 327 328 331 331 331 332 332 331 327 327 330 331 331 331 332 332 331 331 330 329 329 329 330 330 331 330 329 330 331 330 330 329 329 329 328 327 326 328 328
341 339 338 337 337 337 336 335 335 334 334 335 334 334 334 333 334 335 334 334 334 335 335 334 333 332 333 333 332 330 331 331 330 330 330 329 329 330 329 327 325 327 328 328 330 330 326 328 331 329 329 331 331 331 328 327 330 331 331 331 331 331 331 331 331 329 328 329 330 330 331 330 329 330 331 330 330 330 330 329 329 327 326 328 328
340 338 337 337 337 336 335 335 334 334 334 334 334 334 334 333 333 334 334 334 334 334 334 334 333 332 332 333 333 332 331 331 330 329 329 327 328 330 331 330 329 329 328 327 329 330 326 328 329 327 328 329 329 329 328 328 329 331 331 330 330 330 331 330 330 330 329 330 330 330 330 330 330 330 330 330 329 330 330 329 328 327 326 328 328
338 337 335 336 337 336 335 335 334 334 333 334 334 334 334 334 334 333 334 333 333 334 335 334 334 333 332 332 332 332 331 331 331 331 331 330 329 331 332 332 332 331 330 328 329 331 329 328 328 328 329 328 327 327 328 329 330 331 331 330 330 330 330 330 330 330 330 330 329 330 330 330 330 330 330 330 329 330 329 328 328 327 327 328 328
337 336 334 335 336 336 336 335 335 335 334 334 334 334 334 334 334 334 334 333 333 333 334 334 334 333 333 333 331 332 331 332 332 332 333 332 332 331 332 333 333 332 331 331 331 331 330 329 329 330 329 329 329 328 329 330 330 330 330 330 331 329 330 331 330 330 331 331 330 331 330 330 330 330 330 330 330 330 329 328 328 328 328 328 328
336 336 335 335 336 336 336 336 335 336 335 335 334 333 333 334 335 335 334 334 333 333 333 333 332 332 332 332 331 331 331 332 333 332 333 333 333 333 333 333 333 333 332 332 332 331 330 330 331 330 330 330 329 328 329 330 330 331 332 331 330 329 329 331 331 331 331 330 331 331 330 330 331 330 330 330 330 330 329 328 328 329 328 327 327
336 336 336 336 337 336 336 335 336 336 336 335 334 334 334 333 334 334 334 334 334 334 333 333 332 331 330 330 330 330 330 331 332 333 333 333 333 333 333 333 333 333 332 332 332 332 331 331 331 331 330 330 329 329 329 330 331 331 331 332 331 330 330 331 331 331 331 330 330 330 330 330 330 330 330 329 329 329 329 329 329 329 328 327 327
335 335 336 337 337 336 335 335 335 335 335 335 335 334 334 333 333 333 333 333 333 333 333 333 333 332 331 331 329 329 329 330 332 333 333 333 333 333 333 333 333 333 332 332 332 333 332 331 330 329 329 329 328 329 330 330 330 330 331 331 331 330 331 331 331 331 331 330 330 330 330 331 330 330 329 329 330 329 329 329 328 328 328 327 327
334 334 335 336 336 335 333 333 332 332 333 333 333 333 333 333 333 332 332 332 332 332 333 332 333 332 331 331 331 329 328 329 331 332 333 332 333 333 333 333 333 333 332 332 333 333 331 330 329 328 327 328 328 329 330 330 330 330 329 330 330 330 331 331 331 331 330 330 330 330 330 330 330 330 329 329 330 329 329 329 329 329 329 329 328
Wind_Speed
19 23 22 22 20 18 17 16 15 14 14 14 14 13 12 11 10 10 9 7 7 6 5 5 6 8 9 10 12 12 13 15 16 19 21 21 20 20 19 18 17 17 16 16 17 17 17 16 16 16 15 15 14 14 13 13 13 13 12 13 13 13 14 13 13 13 13 12 12 13 15 16 16 17 18 18 18 17 17 17 18 18 18 19 19
20 22 23 22 20 18 17 16 15 15 14 14 14 13 12 12 11 10 9 7 7 5 5 6 8 9 9 11 12 12 14 16 17 19 21 21 20 20 19 18 18 18 18 17 17 17 17 16 16 16 16 15 14 14 13 12 12 11 11 12 12 12 12 11 11 11 12 12 11 11 13 14 15 18 19 19 19 18 17 17 17 18 18 19 19
20 22 24 22 21 18 17 16 15 15 14 14 14 14 13 12 11 10 8 7 7 6 6 7 9 9 9 11 12 12 15 16 17 19 21 21 20 19 18 18 18 19 18 17 17 17 17 16 16 16 15 14 14 13 11 11 10 9 8 8 8 9 9 9 10 10 11 12 11 10 10 10 13 16 17 17 18 18 17 18 18 17 18 18 18
20 22 25 22 21 19 17 16 15 14 14 14 14 14 13 12 11 10 8 7 7 7 8 9 10 10 10 12 12 13 16 16 18 20 21 21 20 19 18 18 18 19 19 18 17 17 16 15 15 14 13 13 13 12 11 10 9 8 7 6 6 6 6 8 10 10 10 11 12 11 9 9 10 13 13 14 15 16 16 17 17 17 17 17 17
19 20 24 24 22 20 18 16 15 13 13 14 14 14 14 12 11 9 8 8 8 8 10 11 10 10 11 12 12 14 16 17 19 20 20 20 20 19 18 17 18 18 18 18 17 16 15 14 13 13 13 13 13 12 12 11 10 10 9 8 7 7 8 9 11 11 9 11 13 12 11 9 9 10 9 10 11 12 14 15 16 16 16 16 16
19 18 23 24 22 20 18 16 14 13 12 13 14 14 14 13 11 9 8 9 9 10 11 11 11 11 11 11 12 15 17 19 20 20 20 21 20 20 19 17 18 18 18 17 16 15 14 13 12 13 14 14 13 12 11 12 12 12 12 11 11 11 10 11 12 12 10 11 13 11 10 9 7 8 7 6 7 9 11 12 13 14 14 14 14
18 18 22 23 22 21 18 15 14 12 12 12 13 13 14 13 11 9 9 10 10 12 12 12 11 11 12 12 13 15 17 19 20 21 20 20 20 20 18 18 18 17 17 16 14 14 13 13 13 12 13 13 12 11 12 13 14 15 15 15 14 14 13 13 13 13 13 11 10 10 10 9 7 6 6 6 7 7 8 9 10 12 12 13 12
17 18 20 20 21 21 18 15 13 12 12 12 13 13 13 12 11 10 10 11 12 13 13 12 12 12 12 12 13 15 16 18 19 19 20 19 20 20 18 17 17 17 16 15 14 13 13 14 13 13 12 12 12 12 14 15 16 17 18 19 18 17 16 15 14 13 14 11 9 10 10 9 7 5 5 7 9 9 9 9 9 10 11 11 11
17 18 18 17 20 20 17 15 13 11 12 12 13 13 13 12 11 11 11 11 12 13 13 13 12 12 12 13 14 14 16 17 17 17 18 18 19 20 18 17 17 16 15 14 13 14 14 13 13 13 13 13 14 15 16 17 18 19 20 21 21 20 19 17 17 14 13 11 11 11 10 9 8 6 6 7 9 11 11 9 7 9 9 9 9
17 18 16 16 20 20 17 15 12 11 11 12 13 12 13 12 12 11 11 11 13 13 13 13 12 12 12 13 14 14 15 15 15 15 16 17 17 19 19 18 17 16 14 13 13 13 13 13 13 13 14 14 15 17 18 19 20 21 21 21 21 21 19 19 19 15 12 11 11 12 13 12 10 8 7 7 8 10 10 9 7 8 8 8 7
17 18 16 16 20 19 17 14 12 11 11 12 12 12 12 12 12 12 12 12 13 13 13 12 12 12 12 12 13 14 14 13 13 12 13 14 15 17 18 17 16 15 13 13 13 13 13 13 12 12 14 16 17 18 19 21 22 22 23 22 22 20 20 21 18 14 13 12 12 12 12 12 10 10 9 9 9 9 9 9 9 8 8 7 6
17 18 15 17 20 18 16 14 12 11 11 12 12 12 12 12 12 12 12 12 12 12 12 12 12 13 11 11 12 13 13 12 11 11 11 11 13 14 15 16 15 14 13 13 14 14 14 13 12 12 14 17 18 19 20 21 22 23 23 23 23 21 22 22 16 14 14 14 14 13 12 11 10 11 11 11 11 11 9 9 9 8 7 7 6
17 17 14 17 19 17 15 13 12 11 11 12 12 11 11 11 11 11 11 11 11 11 11 12 12 12 12 11 11 12 11 10 10 10 10 11 11 12 13 14 14 14 14 14 15 14 14 13 12 12 15 17 18 18 19 20 21 22 23 23 23 22 24 22 16 15 15 14 15 13 12 11 12 12 12 12 11 11 10 9 9 8 7 7 6
16 16 15 16 18 17 15 13 12 11 12 12 12 11 11 11 10 10 10 11 11 10 11 11 11 12 12 11 11 11 12 10 9 10 10 11 11 11 12 12 12 13 14 15 15 15 15 13 13 13 15 16 17 18 18 19 19 20 21 22 22 22 24 21 17 17 16 14 14 14 13 13 14 14 14 13 12 11 11 11 10 9 8 8 8
16 17 15 16 17 17 15 13 12 12 13 13 12 12 11 11 10 10 9 9 10 10 10 10 11 11 11 11 11 11 11 11 9 9 10 11 11 11 11 11 11 12 13 14 15 17 16 13 13 14 15 16 17 17 18 18 18 19 19 20 19 20 22 18 16 18 18 15 13 13 13 14 15 14 14 14 13 13 12 11 10 9 9 9 8
17 17 15 16 16 17 15 14 13 12 13 13 13 12 11 10 9 9 8 8 8 9 9 8 9 9 9 10 10 10 10 11 10 9 9 10 11 12 12 11 11 10 11 13 15 17 16 14 13 14 15 16 17 17 17 18 18 18 18 20 19 19 21 18 16 17 16 14 13 11 12 14 14 13 13 13 14 14 13 11 10 10 10 9 9
17 17 15 16 16 16 16 15 14 13 13 13 12 11 10 9 9 8 8 7 7 8 8 7 8 8 8 7 8 9 10 11 11 9 9 9 10 11 12 12 11 10 10 11 14 16 15 14 13 14 15 16 17 17 17 17 17 18 18 19 19 18 19 19 17 16 15 14 12 10 10 13 14 13 13 13 14 13 12 12 11 10 10 10 9
17 16 15 16 15 15 15 15 15 14 14 14 12 11 10 10 9 8 7 7 7 7 7 7 8 8 8 8 7 8 10 11 12 10 10 10 10 11 12 12 12 11 10 10 13 15 14 13 13 14 14 15 16 17 17 17 17 17 17 17 18 16 17 19 17 15 16 14 11 9 11 13 14 13 12 12 12 11 11 10 10 10 10 10 9
16 16 16 16 16 16 15 15 15 14 14 14 14 12 11 10 9 9 8 7 7 7 7 7 8 8 9 9 8 9 11 11 11 11 11 11 11 12 13 12 11 10 10 10 11 13 13 12 12 13 13 14 15 16 16 16 16 16 16 17 17 15 16 16 15 14 14 12 9 9 11 13 12 12 11 11 10 9 10 9 9 10 9 9 9
16 16 16 16 16 16 16 15 14 14 13 13 13 13 12 11 10 9 8 8 8 8 8 8 8 8 8 9 9 10 11 12 12 11 12 13 13 13 13 12 10 9 9 8 9 11 12 11 11 11 12 12 13 14 14 15 15 15 15 15 15 15 15 14 13 12 11 10 9 9 10 11 11 10 9 9 8 8 8 8 8 8 8 8 8
14 16 16 16 16 16 17 16 15 14 14 13 13 13 13 12 11 10 10 9 9 8 8 8 8 8 8 9 9 10 11 12 12 12 13 14 15 14 13 12 11 11 10 9 9 10 11 11 10 10 10 10 11 13 13 13 13 14 14 13 14 14 14 14 13 11 10 9 7 7 9 9 9 8 7 7 7 7 6 5 6 6 6 7 7
13 14 16 17 16 16 17 16 15 14 14 14 14 14 14 13 13 12 12 11 10 9 8 8 8 8 9 9 8 7 8 8 9 11 12 14 16 15 15 14 14 14 12 12 12 11 11 11 10 9 8 8 9 10 11 11 11 12 12 12 13 13 12 12 12 11 9 7 6 6 7 7 6 6 6 6 6 6 5 4 4 4 5 5 5
13 14 15 17 16 15 16 15 15 15 15 15 14 14 14 13 12 12 12 11 10 9 8 8 8 8 8 7 7 7 7 6 7 9 11 14 17 17 17 16 16 16 14 14 14 13 11 11 10 9 8 7 7 7 8 8 9 9 10 11 12 11 9 9 10 10 7 6 6 5 5 5 5 5 5 5 5 5 4 4 3 3 3 4 3
13 13 15 16 16 15 16 16 15 15 15 15 15 14 14 13 12 11 10 10 10 9 9 8 8 10 9 8 9 9 9 9 10 10 10 13 16 17 18 17 18 18 17 16 15 14 12 10 10 10 9 8 7 6 6 6 7 8 9 10 10 8 7 7 7 8 6 5 5 5 5 5 5 5 4 4 4 3 2 2 2 2 2 2 3
12 13 14 15 16 15 15 15 15 15 15 15 15 15 15 14 13 12 11 11 11 10 10 9 10 12 11 10 10 10 9 10 11 10 9 10 13 16 17 17 19 19 18 18 17 16 13 11 11 11 10 9 8 8 7 5 6 7 8 9 8 6 6 6 6 7 6 4 6 5 5 5 4 4 3 3 3 2 2 1 1 0 0 1 2
12 12 13 15 16 15 14 14 14 14 15 15 15 15 15 13 13 13 13 13 12 10 10 11 12 13 12 11 10 10 9 10 10 11 10 10 12 14 16 16 18 20 20 20 19 18 13 11 11 11 10 10 10 9 8 6 6 6 6 7 6 5 6 6 6 6 5 4 6 5 5 4 3 3 2 2 2 1 1 0 1 1 1 0 0
11 11 13 14 15 15 14 13 13 14 15 15 14 13 13 11 11 12 12 12 13 12 11 12 13 13 13 12 12 10 10 10 11 11 11 11 12 13 15 15 15 18 21 20 19 19 14 11 12 12 12 12 11 10 8 7 7 6 5 5 5 5 5 5 5 5 4 4 6 5 4 3 2 2 2 2 1 1 0 1 1 1 1 1 1
11 12 13 13 13 13 13 13 12 13 13 13 12 11 11 11 11 11 10 12 13 13 12 13 14 13 14 14 13 12 10 10 11 12 12 12 12 13 14 14 13 15 20 20 19 20 16 13 13 13 13 13 12 11 9 7 7 6 5 4 4 4 5 5 5 5 4 3 4 4 3 2 2 1 1 1 2 1 1 0 1 1 1 1 1
10 10 10 10 10 10 10 10 10 10 10 11 11 11 12 12 10 10 10 12 12 12 13 13 13 13 14 15 14 13 11 10 11 12 12 12 12 12 14 15 14 14 18 20 21 22 18 14 14 14 14 13 12 11 10 8 7 6 5 3 3 3 4 4 4 6 5 3 3 3 2 2 2 1 0 1 2 2 2 1 1 1 1 2 1
8 7 7 9 10 10 10 9 10 10 10 11 11 12 12 12 11 11 12 11 11 12 14 13 13 14 15 15 14 14 12 11 12 12 12 13 13 13 14 15 15 15 17 19 22 24 21 15 14 14 14 13 12 11 10 8 7 6 5 4 3 3 4 5 4 5 5 3 3 3 3 2 1 1 0 2 3 3 1 1 2 1 1 1 1
7 7 7 8 9 10 11 11 12 12 11 11 11 12 12 12 12 12 13 12 11 13 14 13 14 15 15 15 15 15 15 13 13 14 13 13 14 15 15 15 16 17 16 18 21 24 23 18 14 14 14 13 12 11 10 8 7 6 6 4 3 4 4 4 5 5 4 3 2 3 3 2 1 1 1 2 3 1 0 1 1 1 2 2 2
7 7 7 7 8 8 9 10 10 11 12 11 11 12 12 13 13 13 13 14 13 13 13 13 14 14 15 15 16 17 17 17 16 15 14 14 15 15 15 15 15 16 16 17 20 23 24 20 16 15 15 13 13 12 11 10 9 7 6 5 4 4 4 3 4 5 5 3 2 2 2 2 2 1 1 2 1 0 1 2 2 2 3 2 1
5 6 7 7 7 7 7 8 9 9 11 12 13 13 14 13 14 14 14 14 14 13 12 13 14 14 14 15 16 17 18 18 16 15 15 14 15 15 15 15 15 16 16 15 18 22 25 23 18 17 16 14 13 12 11 10 10 8 7 6 5 4 4 3 3 4 5 4 4 3 2 2 0 0 1 2 2 2 2 2 2 2 3 2 2
4 4 5 4 4 5 6 7 8 8 10 12 13 14 14 14 14 15 15 14 13 12 11 13 14 14 14 14 16 16 16 17 17 17 16 14 16 16 15 15 16 17 17 16 17 20 24 23 19 18 18 15 13 13 13 11 10 9 8 7 6 5 4 4 4 5 5 4 5 5 4 2 1 1 1 3 3 3 3 3 3 2 2 3 3
4 3 3 2 1 3 6 7 8 9 10 12 12 12 13 13 14 14 14 13 12 12 13 13 15 15 15 15 16 15 15 17 18 18 17 15 15 15 15 16 19 19 18 18 18 18 20 20 18 18 18 16 15 14 14 12 11 10 10 9 7 7 6 5 6 6 6 5 5 5 4 3 3 2 1 1 3 3 4 5 5 5 4 4 5
3 2 2 1 2 2 4 6 7 9 10 11 12 13 13 13 14 14 13 12 13 14 14 14 15 16 16 17 16 14 15 18 19 19 18 16 15 14 15 17 20 20 18 20 19 17 17 17 18 19 18 16 16 15 14 13 12 12 11 10 9 9 7 6 7 7 6 5 4 6 5 4 4 4 3 2 1 3 5 7 7 7 7 7 7
4 3 2 2 3 4 4 5 5 7 9 10 11 13 14 13 13 13 14 13 14 15 14 14 14 15 17 19 18 15 15 17 19 20 18 16 15 15 15 15 18 18 17 20 21 18 17 17 18 19 19 18 16 16 15 14 12 12 11 11 10 9 8 7 8 8 7 5 5 5 5 4 5 4 4 4 3 2 3 6 6 7 8 9 9
4 3 3 3 3 4 5 5 6 6 8 9 11 13 13 13 12 14 15 14 14 14 14 15 14 16 18 18 18 16 16 16 18 20 19 17 16 16 16 16 16 16 17 20 21 20 18 18 19 19 20 19 17 16 16 15 13 12 12 11 10 10 10 9 9 10 9 7 6 6 5 5 5 4 4 5 4 3 2 2 3 4 5 6 8
3 2 2 3 3 4 5 6 7 6 7 9 11 12 12 12 13 14 14 13 13 14 14 14 15 18 18 17 17 17 16 15 17 18 18 18 16 17 17 17 17 18 18 19 20 20 19 20 20 20 21 19 15 16 17 16 13 12 12 12 12 11 11 10 9 9 8 7 7 7 6 5 5 5 5 5 5 5 4 2 2 2 2 2 4
4 3 3 4 4 5 4 5 5 5 5 8 9 11 12 13 13 12 12 13 12 13 14 13 14 16 16 15 16 17 15 14 15 16 17 16 15 17 18 17 18 19 20 19 19 20 22 22 20 21 24 20 16 17 19 17 14 13 13 13 14 12 11 10 10 9 8 8 8 7 7 7 6 6 5 5 5 5 4 3 3 2 1 0 2
5 4 4 5 4 4 2 3 3 4 5 7 8 10 12 12 13 13 13 13 12 12 13 12 13 14 14 13 15 16 15 13 14 14 15 15 13 15 17 17 17 19 20 20 19 20 23 22 20 22 25 22 20 21 20 17 15 14 13 13 13 12 11 12 11 11 10 10 10 9 9 8 6 6 6 6 5 5 4 4 4 3 3 1 1
5 4 4 4 3 2 1 3 3 3 4 5 6 8 10 10 11 13 13 11 11 12 12 12 13 13 12 12 14 15 14 14 14 13 14 14 13 14 15 16 16 18 21 22 21 18 20 22 20 21 22 21 21 22 21 18 16 16 14 12 12 12 12 12 12 13 12 11 11 10 8 8 8 7 6 6 6 6 4 3 3 3 3 2 1
4 3 2 1 1 1 1 3 3 2 3 5 5 7 10 11 11 12 13 12 12 12 11 12 13 13 12 12 13 14 14 14 13 14 14 14 14 14 16 16 17 18 21 23 22 18 18 21 21 23 23 21 19 20 22 19 16 15 15 13 13 12 11 12 13 14 13 12 12 10 9 9 9 8 7 6 6 6 5 4 4 4 3 2 1
2 1 0 0 1 1 2 2 3 2 3 6 6 6 9 11 12 13 14 13 13 11 11 12 13 13 12 13 14 14 14 14 14 14 14 14 14 15 17 18 19 20 20 22 24 21 20 20 22 25 26 24 21 20 22 22 17 15 15 14 13 13 11 13 14 13 13 13 12 12 11 9 8 8 8 8 7 7 6 6 5 4 3 3 2
1 1 1 1 1 1 3 3 3 4 4 6 6 5 7 9 10 12 13 13 13 11 11 11 13 14 13 14 15 14 14 14 15 15 15 16 16 16 17 18 20 21 21 23 24 23 23 23 23 25 26 24 23 21 22 23 20 17 17 15 13 13 13 13 14 13 13 13 13 12 11 10 9 8 9 10 10 8 7 7 6 6 5 3 3
1 3 2 1 1 2 2 3 4 5 5 6 6 4 5 6 7 8 8 10 10 9 9 10 11 13 14 14 15 13 13 14 16 16 17 18 18 18 18 18 19 21 24 25 25 25 26 25 24 24 24 23 22 22 21 22 22 21 21 17 12 11 11 11 14 13 12 12 11 11 11 10 10 9 9 11 10 9 7 6 6 6 5 4 4
1 3 2 1 2 2 1 2 2 4 5 5 6 5 5 5 6 6 8 10 10 10 11 11 11 12 13 14 15 14 13 14 16 16 17 19 19 19 19 20 20 22 24 26 25 26 26 26 26 24 24 23 22 22 22 21 22 22 21 18 15 11 8 9 12 11 11 10 9 10 11 10 9 9 9 9 9 8 8 8 7 6 6 5 5
2 3 3 2 3 3 2 1 1 3 6 7 7 6 6 5 6 8 9 11 11 11 12 12 12 13 13 14 15 15 15 15 17 17 18 19 20 19 19 20 21 22 25 26 24 24 25 26 26 24 23 22 21 22 21 20 20 20 19 18 17 13 8 9 9 7 9 11 11 10 10 9 9 9 9 9 9 9 10 9 7 7 7 7 6
5 5 5 4 5 5 4 2 2 3 6 9 9 8 8 7 8 9 10 10 11 12 12 12 12 13 13 14 15 15 16 17 17 18 18 19 20 20 19 20 22 23 25 25 23 24 26 25 24 24 23 23 22 21 21 20 19 19 18 18 16 12 9 9 8 7 7 10 12 12 11 10 10 10 10 10 10 10 10 9 8 7 7 7 7
6 6 6 6 7 7 7 7 6 6 7 8 9 9 10 9 9 10 10 11 12 13 13 12 12 13 13 14 15 15 17 19 18 18 18 19 20 20 19 20 21 23 24 24 23 24 26 24 22 23 23 23 22 21 20 20 19 18 18 17 16 14 11 9 8 8 7 6 8 11 12 11 11 11 11 10 9 10 10 9 9 7 6 6 6
6 7 8 8 8 9 9 8 8 8 8 9 11 13 12 11 10 11 12 13 14 14 14 14 12 12 13 14 14 14 16 19 19 18 18 18 19 20 19 18 18 21 22 22 23 24 25 24 22 21 22 22 21 20 20 20 19 17 16 16 16 15 13 11 9 9 9 7 7 9 11 11 11 10 11 10 9 9 10 9 8 8 7 7 6
Wind_Direction
162 174 170 166 169 169 165 164 169 170 171 173 173 170 170 168 169 169 164 156 149 146 138 119 110 107 97 87 85 88 94 107 121 128 130 129 125 121 118 115 109 104 106 108 107 109 111 110 110 110 109 106 105 104 103 104 105 107 108 107 106 104 103 103 103 103 102 100 99 95 91 91 89 89 88 88 88 88 87 85 83 83 83 82 81
159 174 172 167 169 168 166 166 169 171 172 173 174 172 172 170 171 170 166 159 155 154 141 123 118 111 97 90 90 94 102 113 125 130 132 131 128 123 119 115 110 107 108 108 108 109 109 109 108 107 107 105 104 103 102 104 104 106 107 108 108 106 102 100 99 102 105 103 101 94 87 87 85 83 84 85 87 87 87 85 83 83 83 82 81
154 169 174 170 167 167 167 167 169 171 172 173 175 174 174 173 174 173 170 165 162 156 139 129 122 112 100 93 93 101 110 119 127 131 133 132 129 123 118 114 111 110 110 110 109 109 109 108 107 105 106 105 103 100 100 101 103 107 109 114 116 111 105 100 101 103 108 108 101 96 91 88 87 82 82 83 85 86 85 84 83 82 82 81 81
157 166 174 170 166 168 168 167 169 170 172 174 177 178 178 176 178 178 175 171 163 152 138 133 124 113 101 97 100 109 116 121 126 131 134 133 129 121 117 115 113 113 113 112 111 110 109 107 106 105 104 102 100 98 97 97 99 102 108 122 129 126 114 108 112 109 110 108 90 80 83 91 98 92 87 86 84 85 84 83 82 81 80 80 80
156 162 171 168 166 169 167 168 167 169 172 175 180 181 182 181 184 183 179 170 158 148 140 135 126 114 103 102 110 116 119 121 125 131 134 133 130 122 118 117 116 115 114 113 112 111 110 108 105 102 99 100 101 100 97 96 94 92 95 106 120 127 120 118 121 117 117 107 86 73 76 83 96 97 94 92 87 83 83 83 82 81 79 79 78
153 156 165 166 165 168 167 167 164 167 172 178 183 184 185 185 187 187 177 164 155 147 141 137 128 117 108 111 118 122 122 122 126 131 131 131 129 123 119 119 117 116 116 115 115 113 111 106 100 97 98 102 101 97 93 93 92 90 90 98 111 117 117 119 122 124 119 99 86 82 82 81 82 90 93 97 97 89 86 84 83 83 80 78 75
154 155 161 165 165 166 166 165 164 165 170 179 185 186 188 188 188 184 172 161 153 146 143 140 132 121 118 120 125 126 126 127 130 132 131 130 128 123 121 123 121 120 119 118 118 114 108 101 98 98 100 101 96 91 90 92 93 91 89 94 102 107 111 112 117 125 114 91 87 88 87 87 83 91 98 100 104 97 91 91 89 88 84 82 77
155 153 157 165 165 164 165 164 163 164 169 178 184 187 188 187 186 178 169 160 152 148 147 145 136 128 127 127 129 132 131 132 135 136 135 132 129 125 124 127 127 127 125 123 120 111 103 100 101 101 100 97 93 92 92 92 91 90 89 91 95 100 103 105 112 116 103 92 94 89 85 88 90 111 113 98 102 99 90 88 93 97 92 88 83
155 152 155 164 166 163 163 163 160 163 167 176 182 185 186 184 181 174 167 160 152 152 153 149 141 134 134 132 131 136 137 138 139 140 138 136 135 133 132 134 133 134 130 125 117 108 102 101 102 102 99 97 96 95 93 93 89 87 88 89 92 95 98 103 104 99 92 94 98 94 94 89 84 104 113 102 109 111 102 95 94 99 94 90 91
154 153 157 162 165 162 161 161 158 160 165 173 179 181 183 181 177 172 166 160 157 159 158 153 146 140 140 137 135 140 142 143 144 143 141 140 142 142 143 142 141 140 135 125 116 108 104 103 103 102 100 99 97 95 94 92 88 85 85 86 88 90 96 97 93 91 93 98 104 114 118 106 93 101 109 103 111 121 121 121 114 108 104 101 105
155 154 162 163 163 161 159 158 155 158 164 170 174 177 180 178 175 172 168 165 165 165 161 155 151 148 146 142 140 143 145 148 147 145 144 142 145 147 149 148 146 144 137 126 118 112 108 106 104 104 102 100 98 97 96 92 88 85 84 84 84 87 93 91 87 91 92 88 88 96 104 104 104 111 110 100 104 116 123 128 126 124 123 121 117
157 156 167 165 159 159 158 156 153 155 161 167 169 174 177 175 174 173 172 169 171 169 162 157 156 154 152 147 144 145 146 149 149 145 144 145 147 148 152 152 150 147 138 127 120 115 111 111 111 110 105 102 100 98 95 92 90 87 85 83 83 85 87 88 92 96 97 95 90 88 93 100 106 106 102 100 106 114 119 125 131 137 137 135 126
158 158 167 164 158 156 157 155 152 153 156 165 167 171 172 170 172 176 175 170 173 172 165 163 161 159 157 151 147 148 148 150 152 149 147 149 150 149 152 153 153 149 139 129 121 118 118 121 121 115 108 104 101 98 95 93 91 89 87 85 84 84 83 88 95 95 96 98 97 99 98 98 97 96 98 102 108 114 120 127 133 138 135 131 126
157 160 167 164 159 154 157 155 150 150 154 163 165 168 169 168 170 173 173 169 173 174 171 167 166 163 160 157 151 153 155 154 156 157 156 154 154 152 153 154 153 147 139 130 123 125 128 128 123 115 108 103 100 98 96 93 91 89 88 86 86 85 82 84 90 91 89 86 87 89 89 92 94 96 98 100 103 109 117 124 126 124 118 117 118
157 163 168 166 161 154 157 156 151 151 154 162 165 169 171 170 170 171 171 169 171 175 178 172 170 168 165 163 156 157 159 161 162 163 165 163 161 158 157 157 152 147 139 132 128 130 131 128 121 115 107 101 100 98 95 93 91 90 89 87 85 86 85 86 89 88 87 86 85 83 85 89 91 93 95 98 101 103 109 114 113 110 110 113 114
162 167 166 165 163 156 156 156 154 151 154 160 165 169 172 172 170 172 175 173 172 173 180 176 170 168 168 168 162 163 163 167 172 169 171 171 169 165 164 162 158 152 142 136 133 131 129 127 120 112 105 101 100 97 96 94 92 91 90 88 84 84 87 91 90 87 87 86 82 77 78 83 85 90 98 100 100 101 103 104 103 103 107 111 112
168 168 163 165 164 160 159 159 156 152 154 159 164 168 169 171 170 172 176 176 173 170 177 179 174 171 167 165 168 176 173 173 178 178 178 178 176 173 171 168 166 162 153 146 137 131 128 126 120 112 107 104 101 99 98 96 95 93 90 90 86 84 85 86 86 90 95 94 88 81 81 84 84 86 95 98 99 101 101 102 101 101 103 106 110
168 163 160 166 167 163 163 162 157 156 156 158 162 165 168 167 164 163 162 162 163 167 174 183 188 186 176 169 181 196 189 182 183 185 186 185 184 181 179 177 173 169 167 158 142 133 131 129 123 117 110 106 105 102 100 98 97 94 93 90 88 87 84 82 83 84 87 93 97 95 91 87 84 83 90 95 98 102 105 108 108 107 109 110 113
165 160 158 164 168 164 164 164 161 161 160 159 160 161 164 160 156 152 150 153 156 161 168 180 193 196 192 188 197 210 202 191 189 192 193 191 190 189 187 184 177 177 177 169 152 141 139 137 128 121 115 110 107 104 102 100 97 96 94 91 90 87 82 82 83 81 84 92 95 89 85 83 85 87 89 91 92 95 101 107 106 108 111 112 114
165 164 161 163 168 164 164 167 166 167 163 164 163 160 160 157 156 155 156 160 161 164 168 178 186 190 196 195 202 215 208 193 191 197 196 193 197 197 192 188 182 186 186 177 170 156 150 146 133 125 120 117 111 107 106 102 100 97 93 93 92 86 85 87 86 87 90 93 91 82 80 85 91 96 97 97 95 91 93 98 101 104 109 112 113
170 170 168 168 172 168 169 171 171 173 168 170 169 164 164 165 165 165 167 167 170 175 181 190 187 184 188 190 195 211 210 195 189 194 195 195 200 201 197 193 187 193 193 188 194 181 166 157 145 133 126 125 119 112 110 106 103 98 95 95 88 85 90 90 88 89 87 85 82 76 79 86 93 102 108 108 105 102 96 97 104 109 115 118 119
170 174 174 174 174 173 175 175 175 178 177 177 176 176 176 176 176 175 176 177 184 191 197 202 194 189 188 186 189 206 214 202 194 193 191 196 201 201 200 198 194 198 201 198 202 200 186 172 161 146 135 133 126 115 111 109 104 99 97 91 85 88 90 88 90 91 94 97 88 81 84 89 94 102 110 110 109 110 109 109 114 122 128 130 132
171 176 177 178 175 176 179 179 181 182 184 184 182 187 186 184 187 187 187 190 196 198 201 201 194 203 200 184 189 204 213 209 207 208 199 197 201 201 201 202 200 202 204 204 206 207 199 183 172 161 149 143 132 118 111 106 103 101 92 86 88 94 91 87 93 97 105 107 91 92 93 91 94 95 101 109 110 107 114 123 131 140 142 145 152
173 176 181 182 179 184 186 183 186 187 189 189 185 192 192 188 192 196 197 201 203 199 204 206 200 212 214 200 203 205 205 208 211 224 225 207 203 203 203 204 204 205 205 206 210 211 205 192 179 170 165 154 141 134 128 116 104 95 88 94 100 99 96 92 95 97 102 103 96 95 91 89 90 89 89 99 102 100 102 109 120 135 155 170 181
172 177 185 185 183 191 191 187 190 191 193 193 192 196 196 193 195 198 199 204 209 207 210 213 207 214 217 212 214 209 206 213 211 220 233 222 213 208 206 207 207 206 206 207 211 212 206 199 188 176 174 164 158 160 161 147 114 101 99 103 104 99 99 97 97 93 92 109 110 99 93 93 87 88 87 88 95 98 91 68 70 101 162 171 178
171 177 185 187 188 193 192 190 192 194 196 199 203 203 202 200 198 199 199 204 213 215 214 214 215 220 220 216 220 217 211 214 213 212 217 222 225 214 205 209 209 207 208 207 210 211 202 200 197 184 176 172 174 178 179 164 129 118 115 105 100 102 102 98 100 99 101 120 115 109 104 95 88 89 78 81 96 108 121 204 262 278 282 332 108
175 180 185 188 190 193 194 191 192 200 202 202 206 205 204 200 197 201 202 205 212 215 216 217 223 227 223 219 223 224 219 217 217 214 212 214 223 219 206 206 207 207 208 207 209 207 195 196 200 190 184 180 184 189 188 173 144 138 129 108 105 110 110 108 107 108 115 122 117 113 105 98 94 85 63 61 68 63 37 236 247 277 300 321 335
183 188 186 189 191 193 197 193 193 203 204 200 199 199 203 200 203 214 215 213 216 216 219 224 227 226 224 224 225 224 221 220 219 216 216 214 220 222 212 211 209 206 208 207 210 207 193 196 202 196 191 183 185 186 183 181 159 151 144 118 116 119 118 119 119 121 122 129 125 114 113 127 102 75 46 51 52 33 20 51 236 290 321 318 327
187 192 184 188 191 190 197 197 197 203 204 203 202 204 209 210 214 226 231 230 225 222 227 231 229 227 229 230 228 224 218 221 222 218 219 217 217 217 213 217 213 204 206 207 212 211 197 196 204 200 195 189 190 189 185 187 174 159 154 142 145 139 124 123 131 130 132 170 164 136 140 143 107 91 337 58 86 97 84 37 320 321 296 285 293
180 185 179 188 193 192 198 200 199 203 205 207 207 212 218 219 220 225 234 236 230 227 231 233 233 234 234 234 230 224 219 220 225 221 219 219 218 215 214 219 218 211 208 206 213 215 206 202 204 201 197 195 198 200 195 187 180 171 166 174 179 148 133 142 152 141 148 194 208 171 158 140 118 121 82 107 117 125 107 342 317 306 295 287 291
171 170 172 185 191 192 198 201 204 205 204 206 207 216 224 224 225 228 233 233 229 231 234 238 242 242 238 237 232 228 225 221 223 222 219 221 219 216 214 217 220 220 213 207 214 218 214 210 206 203 200 196 198 202 198 182 181 186 182 195 189 153 151 160 161 152 162 197 208 177 157 144 139 102 92 124 134 162 77 19 343 333 340 328 309
170 168 171 185 188 190 201 205 208 207 208 212 213 220 224 225 228 231 233 235 237 238 240 244 244 241 240 238 233 233 234 228 224 224 222 221 218 216 217 216 218 223 220 214 218 219 215 214 211 209 205 200 201 204 200 187 187 195 192 206 206 176 172 169 165 164 170 180 166 160 158 153 141 106 87 113 132 163 83 96 79 29 0 355 333
172 175 180 192 192 191 203 204 201 202 211 217 218 223 223 224 231 233 235 239 242 243 247 249 244 243 245 242 236 234 238 239 237 231 226 222 217 215 218 219 218 221 221 218 221 220 215 215 217 215 211 208 210 214 210 197 195 197 196 211 216 198 194 184 180 181 173 173 167 163 177 184 211 139 113 91 91 89 92 104 84 38 13 43 62
173 178 181 191 185 178 195 207 203 201 213 219 221 226 225 228 235 236 237 239 242 246 251 253 253 255 251 247 242 238 241 247 247 239 231 227 221 217 220 223 221 220 220 217 220 221 216 214 216 215 213 212 212 216 216 208 204 203 204 216 220 208 207 199 201 200 179 177 175 163 174 191 258 269 117 84 74 78 84 90 81 54 48 81 82
174 167 164 183 185 178 197 214 217 213 223 229 227 231 232 234 238 238 240 241 246 253 254 254 256 257 252 247 245 245 248 246 244 241 236 233 230 226 227 227 223 221 219 217 217 220 218 215 216 214 212 213 214 216 219 216 211 211 216 219 218 213 206 203 209 204 186 189 178 159 177 188 183 193 164 78 56 68 87 84 78 70 70 90 98
164 148 145 195 258 242 227 227 226 220 223 229 229 232 233 237 241 243 246 248 253 256 256 255 254 253 248 246 247 249 252 249 247 244 238 235 235 234 233 227 223 220 217 218 218 218 218 218 219 218 214 212 213 215 219 220 216 219 228 229 224 217 206 206 208 198 191 198 175 162 180 188 186 179 166 176 106 75 88 86 81 75 72 84 99
164 165 178 213 249 257 256 248 234 222 221 225 229 234 235 237 242 247 252 255 256 256 257 257 253 249 245 245 248 251 255 256 252 246 240 237 238 239 238 233 230 223 216 218 218 216 218 219 218 217 214 211 211 213 216 219 220 226 234 232 224 214 206 209 209 198 191 192 175 171 184 189 201 185 157 172 172 107 90 91 86 78 73 78 84
173 177 197 229 252 253 253 249 239 227 224 227 232 238 240 241 241 246 254 257 256 255 259 261 257 250 246 246 248 254 260 258 252 247 244 243 241 239 237 238 239 232 224 223 219 216 217 217 216 214 212 212 212 212 214 216 218 225 230 225 218 213 208 207 210 204 190 184 181 181 188 193 200 185 166 172 171 177 162 121 111 90 73 72 79
199 216 242 257 260 257 249 243 242 233 228 234 238 241 243 244 243 247 255 260 258 256 258 263 260 255 252 247 247 254 259 254 248 245 245 244 244 244 238 236 241 239 233 230 222 216 217 218 216 215 212 210 210 210 213 214 214 222 227 222 217 211 205 203 210 206 191 186 188 186 190 196 196 184 179 181 179 189 196 180 150 120 81 54 74
225 240 261 280 279 266 252 250 257 253 252 253 250 247 243 243 245 250 258 264 264 261 262 264 260 259 258 252 249 253 254 252 250 246 243 242 243 243 234 230 240 240 234 233 226 217 219 221 215 215 215 208 205 209 213 215 217 223 224 220 214 202 197 201 204 199 192 193 192 190 193 196 193 185 185 192 196 198 202 191 161 154 188 51 49
230 233 258 283 281 263 253 259 257 255 264 262 257 260 256 248 248 252 257 266 273 270 268 265 261 263 264 257 250 250 250 254 256 250 240 232 233 234 227 224 234 240 241 241 234 220 220 222 215 217 218 211 210 214 214 214 214 213 209 210 207 198 199 203 199 197 197 198 195 192 194 195 191 188 188 191 203 210 207 201 185 185 198 182 60
233 238 257 273 273 274 286 284 278 267 268 261 254 263 265 256 256 258 256 260 272 275 273 269 267 267 268 260 250 248 251 253 251 244 236 231 235 237 230 225 229 238 243 243 238 224 219 221 215 213 214 212 216 219 215 208 207 206 199 197 196 196 204 207 205 203 201 201 200 194 195 196 190 192 195 191 203 212 201 201 203 198 201 190 177
241 250 259 256 295 341 305 302 321 322 293 283 267 260 262 260 262 265 262 261 265 271 273 270 270 271 270 266 257 252 253 252 246 238 235 237 240 239 235 229 230 237 240 237 233 222 217 218 215 215 213 209 213 218 218 210 205 206 201 197 194 192 203 211 211 208 205 209 206 198 200 204 196 193 200 199 203 207 198 200 214 211 196 182 180
253 302 337 108 69 7 343 337 326 309 284 284 277 266 268 264 256 254 257 265 267 266 267 268 271 270 266 267 263 256 254 253 247 240 238 242 243 241 237 231 231 235 234 232 229 219 214 213 214 220 216 208 206 213 220 213 206 207 203 202 199 194 202 208 209 210 209 211 209 204 204 207 204 201 205 206 200 201 202 201 209 215 193 179 199
241 18 15 50 69 33 0 350 336 333 315 295 288 274 272 267 252 244 245 257 265 266 270 273 274 271 267 268 266 261 260 259 255 250 247 247 247 245 240 233 231 231 228 228 227 220 215 212 215 220 217 213 213 216 220 216 209 209 207 204 198 199 210 207 203 207 211 210 207 208 209 208 208 208 212 211 201 198 204 203 204 210 198 185 199
339 357 12 52 49 37 8 352 348 337 317 303 299 285 279 275 259 250 252 262 268 270 271 268 271 275 276 275 273 270 269 267 263 259 255 251 249 247 242 236 231 229 226 224 224 221 218 216 217 220 218 218 221 222 223 221 215 210 210 209 198 196 206 200 193 193 200 209 206 204 209 209 207 207 214 214 206 198 201 205 206 211 204 190 203
346 333 349 44 35 35 29 0 351 320 307 304 298 287 279 276 266 261 263 266 267 267 265 262 266 274 278 282 284 280 276 274 269 263 259 256 252 246 240 236 231 228 224 220 219 219 217 217 219 221 219 217 220 224 224 225 219 213 215 216 210 205 200 193 194 185 182 195 201 203 205 205 204 206 211 212 206 200 201 204 205 211 207 195 206
277 304 321 357 11 15 26 356 317 301 295 294 293 285 273 270 269 264 262 263 265 265 266 269 275 276 276 281 286 285 284 282 277 270 263 258 255 248 240 237 231 224 221 218 217 215 213 216 218 218 218 216 217 221 225 227 220 213 216 217 217 219 209 195 203 200 183 183 188 199 202 198 199 203 205 207 205 204 209 210 204 208 214 206 204
294 308 316 330 337 335 336 321 287 272 275 282 289 285 275 269 268 267 267 270 271 271 273 273 277 280 279 279 283 288 291 287 280 275 266 256 254 251 242 237 230 221 217 217 216 215 213 214 214 213 214 214 213 217 224 230 227 219 215 214 211 208 203 195 194 201 197 185 183 189 194 194 198 204 205 204 204 203 205 206 199 205 223 220 211
295 303 303 305 311 310 307 299 284 270 264 272 280 280 274 271 272 272 272 272 270 272 275 271 271 276 278 277 279 285 291 291 284 276 266 256 252 249 240 235 229 221 218 216 215 215 212 210 211 212 213 213 215 217 222 227 231 226 217 213 205 193 193 197 190 188 194 193 187 186 189 193 195 201 202 198 198 197 196 200 199 200 216 219 217
297 299 298 297 300 299 298 297 294 288 280 273 273 272 270 266 264 265 267 269 267 265 266 264 265 269 271 271 273 278 287 290 285 274 265 256 249 244 237 232 226 221 220 218 215 212 208 205 207 211 212 213 216 220 223 224 228 226 219 214 206 194 191 195 193 188 187 191 189 182 186 193 192 194 197 192 188 191 192 198 199 193 200 205 208